�N����,����,�~����,�C��,���x,�C��,����,���ϕ���,�ő�u�ԕ���,�ő厞����,���˗�,�I�_���x,�n�����x,�ő啗���N��,DTYPE
"18/01/19","00:10",0.0,4.2,96.8,1014.2,306.6,1.7,2.5,312.6,0.00,3.8,7.4,"00:08:02",1
"18/01/19","00:20",0.0,4.1,96.3,1014.2,316.3,2.0,2.7,324.2,0.00,3.6,7.2,"00:19:12",1
"18/01/19","00:30",0.0,4.1,97.2,1013.8,307.3,1.6,2.9,320.9,0.00,3.7,7.2,"00:28:32",1
"18/01/19","00:40",0.0,4.3,97.6,1013.8,314.6,2.0,2.8,324.5,0.00,4.0,7.3,"00:36:16",1
"18/01/19","00:50",0.0,4.3,96.7,1014.0,318.0,1.8,3.2,320.3,0.00,3.9,7.2,"00:41:36",1
"18/01/19","01:00",0.0,4.3,97.4,1013.8,322.6,2.0,2.9,335.1,0.00,4.0,7.1,"00:51:36",1
"18/01/19","01:10",0.0,4.3,97.3,1013.8,322.7,1.8,2.7,328.1,0.00,4.0,7.0,"01:01:38",1
"18/01/19","01:20",0.0,4.4,97.7,1013.8,296.8,2.2,3.1,307.0,0.00,4.1,7.1,"01:18:16",1
"18/01/19","01:30",0.0,4.6,97.0,1013.3,323.2,2.6,5.7,322.1,0.00,4.2,6.9,"01:22:32",1
"18/01/19","01:40",0.0,4.3,96.7,1013.8,297.9,1.5,2.5,320.4,0.00,3.9,7.0,"01:32:32",1
"18/01/19","01:50",0.0,4.1,97.3,1013.8,297.8,1.3,2.0,310.2,0.00,3.8,6.9,"01:42:00",1
"18/01/19","02:00",0.0,4.2,97.5,1013.8,304.2,1.6,2.4,313.6,0.00,3.9,6.9,"01:52:48",1
"18/01/19","02:10",0.0,4.1,97.2,1013.5,294.1,1.1,1.7,302.1,0.00,3.7,6.8,"02:08:42",1
"18/01/19","02:20",0.0,3.9,97.4,1013.5,291.6,1.0,1.8,321.2,0.00,3.6,6.9,"02:14:24",1
"18/01/19","02:30",0.0,4.1,97.7,1013.3,314.0,1.1,1.9,315.1,0.00,3.8,6.9,"02:21:44",1
"18/01/19","02:40",0.0,4.1,97.3,1013.8,302.8,1.5,2.6,320.2,0.00,3.8,6.8,"02:38:00",1
"18/01/19","02:50",0.0,3.9,97.2,1013.5,290.5,1.3,2.1,318.4,0.00,3.5,6.6,"02:43:04",1
"18/01/19","03:00",0.0,4.0,97.8,1013.5,296.5,1.0,2.1,324.4,0.00,3.7,6.6,"02:59:20",1
"18/01/19","03:10",0.0,4.2,97.4,1013.5,311.6,1.6,2.5,318.3,0.00,3.9,6.7,"03:04:16",1
"18/01/19","03:20",0.0,4.4,98.0,1013.8,309.9,1.8,2.7,322.8,0.00,4.2,6.8,"03:18:08",1
"18/01/19","03:30",0.0,5.0,96.9,1013.5,321.8,2.0,2.5,319.7,0.00,4.6,6.7,"03:21:12",1
"18/01/19","03:40",0.0,5.2,96.6,1013.5,322.6,2.2,3.3,330.2,0.00,4.7,6.6,"03:32:32",1
"18/01/19","03:50",0.0,5.5,95.8,1013.3,318.9,2.2,3.2,314.0,0.00,4.9,6.8,"03:47:52",1
"18/01/19","04:00",0.0,5.6,95.1,1013.5,297.5,2.1,3.2,320.6,0.00,4.9,6.6,"03:50:40",1
"18/01/19","04:10",0.0,5.4,94.2,1013.8,289.3,2.0,2.8,327.7,0.00,4.6,6.7,"04:06:56",1
"18/01/19","04:20",0.0,4.9,93.6,1013.8,292.5,1.3,2.5,314.9,0.00,4.0,6.7,"04:13:36",1
"18/01/19","04:30",0.0,4.7,94.6,1013.5,277.6,0.7,1.7,318.0,0.00,3.9,6.7,"04:28:32",1
"18/01/19","04:40",0.0,4.3,94.9,1013.8,300.4,1.3,2.1,313.6,0.00,3.6,6.5,"04:38:16",1
"18/01/19","04:50",0.0,3.9,95.3,1014.0,318.6,1.6,2.9,324.0,0.00,3.3,6.4,"04:42:56",1
"18/01/19","05:00",0.0,3.8,96.5,1014.0,291.8,1.2,2.4,333.8,0.00,3.3,6.5,"04:51:12",1
"18/01/19","05:10",0.0,4.0,97.2,1013.8,299.8,0.7,1.7,316.7,0.00,3.6,6.3,"05:08:16",1
"18/01/19","05:20",0.0,4.2,97.0,1014.0,291.7,0.5,1.1,323.9,0.00,3.8,6.4,"05:18:40",1
"18/01/19","05:30",0.0,3.9,96.2,1014.0,314.9,1.5,2.4,319.7,0.00,3.4,6.3,"05:26:00",1
"18/01/19","05:40",0.0,3.6,97.5,1013.8,293.2,1.6,2.2,319.4,0.00,3.3,6.4,"05:32:08",1
"18/01/19","05:50",0.0,3.6,97.5,1014.0,287.4,1.3,1.9,319.4,0.00,3.3,6.3,"05:47:20",1
"18/01/19","06:00",0.0,3.6,98.2,1013.8,286.6,1.6,2.2,324.3,0.00,3.4,6.1,"05:52:16",1
"18/01/19","06:10",0.0,3.8,97.1,1014.0,295.5,0.7,1.7,321.5,0.00,3.4,6.3,"06:00:02",1
"18/01/19","06:20",0.0,3.4,97.7,1013.8,315.9,2.0,2.6,318.9,0.00,3.1,6.2,"06:10:32",1
"18/01/19","06:30",0.0,3.3,98.5,1014.5,295.6,1.5,2.2,310.0,0.00,3.1,6.3,"06:22:24",1
"18/01/19","06:40",0.0,3.6,97.8,1014.2,297.3,1.0,2.0,321.8,0.00,3.3,6.3,"06:33:12",1
"18/01/19","06:50",0.0,3.6,98.6,1014.5,303.9,1.3,2.1,302.0,0.00,3.4,6.1,"06:49:04",1
"18/01/19","07:00",0.0,3.7,97.8,1014.9,318.5,2.1,2.4,321.9,0.00,3.4,6.2,"06:54:16",1
"18/01/19","07:10",0.0,3.7,98.4,1014.5,320.3,1.7,2.6,315.6,0.00,3.5,6.2,"07:06:08",1
"18/01/19","07:20",0.0,4.0,98.3,1014.7,315.9,1.2,1.9,314.4,0.00,3.8,6.3,"07:14:24",1
"18/01/19","07:30",0.0,3.8,97.6,1014.7,293.6,1.1,1.8,318.9,0.00,3.5,6.2,"07:23:52",1
"18/01/19","07:40",0.0,3.7,98.9,1014.9,292.5,1.1,1.9,315.0,0.00,3.6,6.3,"07:30:08",1
"18/01/19","07:50",0.0,4.2,98.5,1014.9,309.4,1.2,2.1,324.1,0.00,4.0,6.4,"07:47:20",1
"18/01/19","08:00",0.0,4.4,98.3,1014.7,299.5,1.6,2.2,304.5,0.00,4.2,6.3,"07:50:24",1
"18/01/19","08:10",0.0,4.6,98.3,1014.9,294.7,0.5,1.3,309.8,0.00,4.4,6.3,"08:07:00",1
"18/01/19","08:20",0.0,4.9,98.0,1014.9,295.9,1.3,2.2,310.6,0.01,4.7,6.5,"08:10:02",1
"18/01/19","08:30",0.0,5.2,97.6,1015.6,302.2,1.8,2.6,321.2,0.00,4.9,6.3,"08:20:48",1
"18/01/19","08:40",0.0,5.2,98.2,1015.6,260.2,0.8,1.9,267.3,0.00,5.0,6.4,"08:30:40",1
"18/01/19","08:50",0.0,5.5,97.1,1015.6,274.7,0.8,1.9,263.5,0.02,5.1,6.4,"08:47:12",1
"18/01/19","09:00",0.0,5.7,97.5,1015.9,301.8,1.7,2.5,310.5,0.02,5.4,6.6,"08:58:00",1
"18/01/19","09:10",0.0,5.9,96.8,1016.1,303.4,2.1,3.2,322.7,0.04,5.5,6.6,"09:01:52",1
"18/01/19","09:20",0.0,6.2,96.5,1015.9,306.1,1.5,1.8,309.9,0.05,5.7,6.6,"09:11:04",1
"18/01/19","09:30",0.0,6.6,95.8,1015.4,296.1,0.8,2.0,324.1,0.08,6.0,6.7,"09:20:24",1
"18/01/19","09:40",0.0,6.8,92.8,1015.9,295.3,0.3,1.0,288.3,0.11,5.8,6.7,"09:37:52",1
"18/01/19","09:50",0.0,7.3,90.7,1016.1,294.6,0.6,1.8,312.9,0.07,5.9,6.9,"09:44:40",1
"18/01/19","10:00",0.0,7.4,89.7,1016.4,282.5,0.6,1.4,252.5,0.06,5.9,6.8,"09:57:04",1
"18/01/19","10:10",0.0,7.6,88.8,1016.4,272.3,1.0,1.4,288.3,0.07,5.9,6.9,"10:00:40",1
"18/01/19","10:20",0.0,7.8,87.4,1016.4,295.9,0.7,1.4,306.1,0.07,5.9,6.9,"10:19:52",1
"18/01/19","10:30",0.0,7.9,85.6,1016.8,296.6,1.3,2.0,304.1,0.08,5.7,7.1,"10:23:20",1
"18/01/19","10:40",0.0,8.4,83.8,1016.6,275.0,1.0,1.8,260.5,0.21,5.9,7.2,"10:35:44",1
"18/01/19","10:50",0.0,8.7,83.5,1016.6,243.2,1.1,1.8,233.2,0.19,6.1,7.2,"10:41:52",1
"18/01/19","11:00",0.0,8.6,77.4,1017.3,266.6,1.1,2.0,269.0,0.10,4.9,7.4,"10:53:36",1
"18/01/19","11:10",0.0,8.8,74.7,1017.5,329.4,0.8,3.3,317.7,0.07,4.6,7.5,"11:08:20",1
"18/01/19","11:20",0.0,9.0,71.9,1017.3,339.4,1.7,3.7,320.4,0.12,4.2,7.6,"11:17:22",1
"18/01/19","11:30",0.0,8.9,68.6,1017.3,343.2,2.3,4.0,344.6,0.14,3.5,7.6,"11:23:46",1
"18/01/19","11:40",0.0,9.1,68.0,1016.8,337.0,2.2,4.4,326.0,0.12,3.6,7.8,"11:36:56",1
"18/01/19","11:50",0.0,9.1,68.2,1016.4,352.1,2.2,3.9,345.2,0.15,3.6,7.6,"11:42:54",1
"18/01/19","12:00",0.0,9.3,67.6,1016.4,349.7,2.6,5.4,4.5,0.25,3.7,7.7,"11:54:40",1
"18/01/19","12:10",0.0,9.3,68.2,1015.9,345.4,2.7,5.8,336.3,0.20,3.8,7.6,"12:00:24",1
"18/01/19","12:20",0.0,9.4,67.9,1015.6,337.7,2.8,5.4,339.1,0.18,3.8,7.9,"12:18:36",1
"18/01/19","12:30",0.0,9.1,65.3,1015.9,331.8,3.9,6.2,324.7,0.19,3.0,8.0,"12:22:00",1
"18/01/19","12:40",0.0,9.5,64.9,1015.4,329.2,3.7,5.9,328.9,0.17,3.3,8.0,"12:34:48",1
"18/01/19","12:50",0.0,9.9,63.4,1015.2,332.9,3.4,6.7,326.4,0.25,3.3,8.3,"12:45:36",1
"18/01/19","13:00",0.0,9.4,61.3,1015.2,324.6,4.5,8.1,326.1,0.22,2.4,8.3,"12:59:04",1
"18/01/19","13:10",0.0,9.7,61.4,1014.7,329.3,3.9,6.5,315.2,0.21,2.7,8.4,"13:00:32",1
"18/01/19","13:20",0.0,10.2,58.0,1014.2,328.8,3.1,5.4,338.7,0.37,2.4,8.4,"13:16:16",1
"18/01/19","13:30",0.0,10.5,56.1,1014.0,330.6,1.7,4.2,343.0,0.37,2.2,8.7,"13:21:04",1
"18/01/19","13:40",0.0,10.7,54.5,1013.8,309.3,3.6,6.2,331.4,0.36,1.9,8.8,"13:36:16",1
"18/01/19","13:50",0.0,10.3,53.4,1013.5,328.9,2.5,4.1,358.2,0.26,1.3,8.9,"13:45:28",1
"18/01/19","14:00",0.0,10.5,52.7,1013.3,335.2,2.6,4.8,339.8,0.30,1.3,9.0,"13:51:36",1
"18/01/19","14:10",0.0,11.4,52.2,1013.3,313.7,2.5,4.9,348.4,0.30,2.0,9.1,"14:06:16",1
"18/01/19","14:20",0.0,11.2,52.7,1012.8,334.9,1.5,4.5,342.5,0.30,1.9,9.2,"14:16:32",1
"18/01/19","14:30",0.0,11.0,52.4,1012.8,346.5,2.6,6.0,323.9,0.27,1.7,9.2,"14:24:08",1
"18/01/19","14:40",0.0,10.9,52.6,1012.6,348.4,2.3,4.5,342.9,0.25,1.6,9.3,"14:39:36",1
"18/01/19","14:50",0.0,11.1,52.3,1012.3,324.2,2.8,5.9,336.4,0.23,1.7,9.3,"14:49:20",1
"18/01/19","15:00",0.0,10.8,52.3,1012.3,323.8,3.6,5.5,333.2,0.21,1.5,9.4,"14:54:56",1
"18/01/19","15:10",0.0,10.9,52.0,1012.3,316.6,2.5,5.0,322.4,0.19,1.5,9.5,"15:00:40",1
"18/01/19","15:20",0.0,10.7,52.2,1012.6,325.4,3.2,5.8,336.7,0.17,1.3,9.5,"15:19:12",1
"18/01/19","15:30",0.0,10.4,56.2,1012.6,324.6,3.4,7.4,322.9,0.15,2.1,9.5,"15:27:44",1
"18/01/19","15:40",0.0,10.0,57.3,1012.3,333.4,4.0,6.3,315.1,0.12,2.0,9.3,"15:31:12",1
"18/01/19","15:50",0.0,9.8,57.3,1012.6,332.1,4.1,7.5,328.1,0.09,1.8,9.4,"15:40:24",1
"18/01/19","16:00",0.0,9.8,57.5,1012.6,331.9,3.7,6.2,333.3,0.07,1.9,9.4,"15:52:16",1
"18/01/19","16:10",0.0,9.6,58.3,1012.6,329.4,3.7,5.9,329.0,0.06,1.9,9.0,"16:08:56",1
"18/01/19","16:20",0.0,9.6,57.4,1013.0,332.3,3.9,7.8,342.1,0.04,1.6,9.2,"16:14:24",1
"18/01/19","16:30",0.0,9.2,59.6,1012.8,334.9,4.0,6.8,349.5,0.03,1.8,9.1,"16:26:24",1
"18/01/19","16:40",0.0,8.8,59.1,1013.0,335.4,3.7,6.2,337.2,0.01,1.3,8.8,"16:31:44",1
"18/01/19","16:50",0.0,8.5,60.5,1012.6,331.6,4.1,7.8,339.9,0.00,1.3,8.9,"16:48:48",1
"18/01/19","17:00",0.0,8.2,61.9,1012.6,335.0,3.9,7.9,340.8,0.00,1.4,8.6,"16:56:16",1
"18/01/19","17:10",0.0,8.0,62.6,1012.8,331.5,4.2,6.6,327.5,0.00,1.3,8.7,"17:00:56",1
"18/01/19","17:20",0.0,7.5,65.2,1012.6,332.0,2.7,4.0,334.2,0.00,1.4,8.7,"17:13:20",1
"18/01/19","17:30",0.0,7.0,68.0,1012.3,332.1,2.0,3.1,330.2,0.00,1.5,8.6,"17:22:24",1
"18/01/19","17:40",0.0,6.2,72.2,1012.6,323.9,2.1,3.5,322.3,0.00,1.6,8.3,"17:32:08",1
"18/01/19","17:50",0.0,5.5,74.0,1012.3,302.1,2.0,2.6,326.2,0.00,1.3,8.1,"17:40:16",1
"18/01/19","18:00",0.0,5.3,76.3,1012.3,288.1,1.7,2.8,320.0,0.00,1.5,8.2,"17:52:16",1
"18/01/19","18:10",0.0,5.1,77.5,1012.3,293.6,2.0,2.6,302.9,0.00,1.5,8.1,"18:06:34",1
"18/01/19","18:20",0.0,4.9,79.1,1012.1,283.9,1.8,2.1,285.9,0.00,1.6,7.8,"18:16:04",1
"18/01/19","18:30",0.0,4.8,80.4,1012.3,284.8,2.0,2.7,268.8,0.00,1.8,7.8,"18:27:56",1
"18/01/19","18:40",0.0,4.8,81.2,1012.8,277.2,2.1,2.7,280.5,0.00,1.9,7.8,"18:34:00",1
"18/01/19","18:50",0.0,4.9,80.5,1012.3,281.5,2.2,2.9,262.7,0.00,1.9,7.6,"18:49:26",1
"18/01/19","19:00",0.0,4.9,79.8,1012.1,305.0,2.3,4.0,328.8,0.00,1.7,7.7,"18:59:40",1
"18/01/19","19:10",0.0,4.5,80.1,1012.6,329.1,2.3,3.6,330.0,0.00,1.4,7.7,"19:00:56",1
"18/01/19","19:20",0.0,4.2,83.4,1012.6,311.1,2.6,5.0,323.1,0.00,1.7,7.4,"19:19:56",1
"18/01/19","19:30",0.0,4.3,82.5,1012.6,304.1,3.4,5.7,331.4,0.00,1.6,7.4,"19:24:24",1
"18/01/19","19:40",0.0,4.0,83.8,1012.6,296.0,2.2,3.6,313.8,0.00,1.6,7.3,"19:33:46",1
"18/01/19","19:50",0.0,4.0,83.7,1012.6,301.1,2.7,5.1,319.2,0.00,1.5,7.0,"19:45:36",1
"18/01/19","20:00",0.0,4.2,82.9,1012.3,311.0,3.4,4.4,327.8,0.00,1.6,7.2,"19:51:28",1
"18/01/19","20:10",0.0,3.9,83.0,1012.3,296.2,2.1,3.4,324.9,0.00,1.3,6.9,"20:00:16",1
"18/01/19","20:20",0.0,3.6,84.5,1012.6,295.5,2.2,3.4,327.7,0.00,1.3,7.0,"20:15:04",1
"18/01/19","20:30",0.0,3.6,85.3,1012.3,282.3,2.1,2.8,270.3,0.00,1.4,6.9,"20:22:08",1
"18/01/19","20:40",0.0,3.6,84.9,1012.3,290.1,2.3,3.6,308.4,0.00,1.3,6.9,"20:34:32",1
"18/01/19","20:50",0.0,3.7,85.1,1012.3,288.3,2.5,3.4,268.9,0.00,1.5,6.7,"20:46:16",1
"18/01/19","21:00",0.0,3.6,84.1,1012.3,294.3,2.2,3.2,310.3,0.00,1.2,6.7,"20:53:12",1
"18/01/19","21:10",0.0,3.7,84.4,1012.3,304.2,3.0,5.6,333.2,0.00,1.4,6.7,"21:06:56",1
"18/01/19","21:20",0.0,3.5,84.3,1012.3,302.9,2.5,4.3,313.3,0.00,1.1,6.7,"21:15:12",1
"18/01/19","21:30",0.0,3.9,84.6,1012.8,310.5,3.1,5.5,327.7,0.00,1.6,6.7,"21:27:44",1
"18/01/19","21:40",0.0,4.3,82.3,1012.6,327.0,4.5,6.8,330.6,0.00,1.6,6.7,"21:35:04",1
"18/01/19","21:50",0.0,4.1,82.2,1012.8,319.7,4.0,6.0,315.6,0.00,1.4,6.6,"21:44:48",1
"18/01/19","22:00",0.0,3.8,82.6,1012.6,327.4,3.9,5.8,324.7,0.00,1.2,6.4,"21:51:44",1
"18/01/19","22:10",0.0,3.8,84.3,1012.3,325.1,3.9,5.5,313.7,0.00,1.4,6.5,"22:08:32",1
"18/01/19","22:20",0.0,3.9,83.9,1012.3,327.4,4.6,6.6,324.5,0.00,1.5,6.4,"22:13:36",1
"18/01/19","22:30",0.0,3.7,83.7,1012.8,331.9,2.8,5.4,327.0,0.00,1.2,6.4,"22:23:20",1
"18/01/19","22:40",0.0,3.4,84.5,1012.6,341.1,2.5,4.3,325.3,0.00,1.1,6.3,"22:33:52",1
"18/01/19","22:50",0.0,3.4,85.4,1012.8,324.9,2.8,4.2,339.7,0.00,1.2,6.3,"22:49:12",1
"18/01/19","23:00",0.0,3.6,85.4,1012.6,328.7,4.2,6.4,323.7,0.00,1.4,6.2,"22:55:12",1
"18/01/19","23:10",0.0,3.8,84.5,1012.3,325.5,4.0,5.8,325.1,0.00,1.5,6.4,"23:01:28",1
"18/01/19","23:20",0.0,3.4,84.0,1011.9,325.1,2.3,4.1,318.8,0.00,1.0,6.1,"23:11:12",1
"18/01/19","23:30",0.0,3.1,84.7,1012.1,316.4,1.6,3.4,326.9,0.00,0.8,6.3,"23:20:08",1
"18/01/19","23:40",0.0,2.8,85.4,1011.6,324.0,1.3,2.8,342.4,0.00,0.6,6.2,"23:37:52",1
"18/01/19","23:50",0.0,2.2,87.4,1011.9,318.7,2.3,3.4,334.6,0.00,0.4,6.1,"23:49:30",1
"18/01/19","24:00",0.0,2.4,88.8,1011.9,311.6,2.7,4.4,324.3,0.00,0.8,6.1,"23:55:44",1
